EXPRESS-AM6

Last updated on Sun Jul 06 2025 00:02:44 GMT+0000 (Coordinated Universal Time)

1 40277U 14064A 25185.81711479 .00000113 00000+0 00000+0 0 9997 2 40277 0.0141 320.0085 0000873 253.1275 57.0888 1.00271459 39185
UTC large
Height (km)
Speed (km/s)
/
Latitude / Longitude
Inclination (degrees)
Orbital Period (minutes)
Azimuth
Elevation
Range (km)
Doppler Factor

Next 0 passes for location: London (51.5072 / 0.1276)

Sorry there are no passes over London.